This is the latest recevied weather packets stored in our database for station/object EC1T-10. If no packets are shown the sender has not sent any weather packets the latest 10 day(s).
| Time | Temp. | Humidity | Pressure | Rain* | Wind** | Luminosity | Snow |
|---|---|---|---|---|---|---|---|
| 1788401009 | 21.67° C | 46% | 1034.8 hPa | - | - | - | - |
| 1788400109 | 21.67° C | 46% | 1034.8 hPa | - | - | - | - |
| 1788399209 | 21.67° C | 46% | 1034.8 hPa | - | - | - | - |
| 1788398309 | 21.67° C | 46% | 1034.8 hPa | - | - | - | - |
| 1788397409 | 21.67° C | 46% | 1035 hPa | - | - | - | - |
| 1788396508 | 21.67° C | 46% | 1034.9 hPa | - | - | - | - |
| 1788395609 | 21.67° C | 46% | 1035 hPa | - | - | - | - |
| 1788394708 | 21.67° C | 46% | 1035 hPa | - | - | - | - |
| 1788393808 | 21.67° C | 45% | 1035 hPa | - | - | - | - |
| 1788391984 | 22.22° C | 46% | 1034.9 hPa | - | - | - | - |
| 1788390184 | 22.22° C | 45% | 1034.9 hPa | - | - | - | - |
| 1788389284 | 22.22° C | 45% | 1035 hPa | - | - | - | - |
| 1788388383 | 22.22° C | 44% | 1034.9 hPa | - | - | - | - |
| 1788386583 | 22.22° C | 44% | 1034.7 hPa | - | - | - | - |
| 1788385683 | 22.22° C | 44% | 1034.6 hPa | - | - | - | - |
| 1788384759 | 22.22° C | 43% | 1034.4 hPa | - | - | - | - |
| 1788383858 | 22.22° C | 43% | 1034.4 hPa | - | - | - | - |
| 1788382958 | 22.78° C | 43% | 1034.3 hPa | - | - | - | - |
| 1788382058 | 22.78° C | 43% | 1034.3 hPa | - | - | - | - |
| 1788381158 | 22.78° C | 40% | 1034.1 hPa | - | - | - | - |
| 1788380258 | 22.78° C | 41% | 1034 hPa | - | - | - | - |
| 1788379358 | 22.78° C | 42% | 1033.5 hPa | - | - | - | - |
| 1788378458 | 22.78° C | 40% | 1033.2 hPa | - | - | - | - |
| 1788377559 | 22.78° C | 42% | 1032.9 hPa | - | - | - | - |
| 1788376633 | 22.78° C | 42% | 1032.6 hPa | - | - | - | - |
* Rain since midnight (hover to see other rain measurements)
** Current wind speed in m/s (hover to see current wind gust speed)